Change the Weather History Date:

Wednesday, October 2, 2013

  Actual Average Record
Temperature  
Mean Temperature 60 °F -  
Max Temperature 77 °F 73 °F 84 °F (1979)
Min Temperature 44 °F 42 °F 27 °F (1961)
Degree Days  
Heating Degree Days 6    
Growing Degree Days 10 (Base 50)    
Moisture  
Dew Point 23 °F    
Average Humidity 28    
Maximum Humidity 71    
Minimum Humidity 9    
Precipitation  
Precipitation 0.00 in - - ()
Sea Level Pressure  
Sea Level Pressure 29.81 in    
Wind  
Wind Speed 7 mph (West)    
Max Wind Speed 24 mph    
Max Gust Speed 33 mph    
Visibility 10 miles    
Events      
Averages and records for this station are not official NWS values.
T = Trace of Precipitation, MM = Missing Value Source: NWS Daily Summary

Daily Weather History Graph

Daily Weather History Graph

Search for Another Location

Airport or City:

Trip Planner

Search our weather history database for the weather conditions in past years. The results will help you decide how hot, cold, wet, or windy it might be!

Date:

Astronomy

Oct. 02, 2013 Rise Set
Actual Time 6:56 AM MDT 6:42 PM MDT
Civil Twilight 6:31 AM MDT 7:07 PM MDT
Nautical Twilight 6:01 AM MDT 7:37 PM MDT
Astronomical Twilight 5:31 AM MDT 8:07 PM MDT
Moon 4:35 AM MDT (10/2) 5:17 PM MDT (10/2)
Length of Visible Light 12h 36m
Length of Day
11h 45m
Waning Crescent, 6% of the Moon is Illuminated
Oct 2
Waning Crescent
Oct 4
New
Oct 11
First Quarter
Oct 18
Full
Oct 26
Last Quarter

Hourly Weather History & Observations

Time (MDT) Temp. Windchill Dew Point Humidity Pressure Visibility Wind Dir Wind Speed Gust Speed Precip Events Conditions
12:53 AM 53.1 °F - 36.0 °F 52% 29.83 in 10.0 mi North 3.5 mph - N/A   Clear
1:53 AM 53.1 °F - 35.1 °F 50% 29.83 in 10.0 mi NW 3.5 mph - N/A   Clear
2:53 AM 44.1 °F 42.5 °F 35.1 °F 71% 29.84 in 10.0 mi ENE 3.5 mph - N/A   Clear
3:53 AM 48.9 °F - 35.1 °F 59% 29.81 in 10.0 mi NW 3.5 mph - N/A   Clear
4:53 AM 48.9 °F - 28.9 °F 46% 29.81 in 10.0 mi NNW 5.8 mph - N/A   Clear
5:53 AM 48.0 °F - 28.9 °F 48% 29.83 in 10.0 mi North 3.5 mph - N/A   Clear
6:53 AM 46.9 °F - 25.0 °F 42% 29.88 in 10.0 mi NNW 3.5 mph - N/A   Clear
7:53 AM 54.0 °F - 25.0 °F 33% 29.86 in 10.0 mi Calm Calm - N/A   Clear
8:53 AM 63.0 °F - 21.9 °F 21% 29.87 in 10.0 mi Calm Calm - N/A   Clear
9:53 AM 66.9 °F - 19.0 °F 16% 29.87 in 10.0 mi Calm Calm - N/A   Clear
10:53 AM 68.0 °F - 21.9 °F 17% 29.84 in 10.0 mi Calm Calm - N/A   Clear
11:53 AM 72.0 °F - 23.0 °F 16% 29.83 in 10.0 mi WSW 9.2 mph - N/A   Clear
12:53 PM 75.0 °F - 18.0 °F 12% 29.79 in 10.0 mi West 12.7 mph - N/A   Clear
1:53 PM 75.9 °F - 12.9 °F 9% 29.74 in 10.0 mi SW 24.2 mph 33.4 mph N/A   Clear
2:53 PM 75.9 °F - 18.0 °F 11% 29.77 in 10.0 mi WSW 17.3 mph 28.8 mph N/A   Clear
3:53 PM 73.9 °F - 18.0 °F 12% 29.75 in 10.0 mi WSW 24.2 mph 31.1 mph N/A   Clear
4:53 PM 73.0 °F - 12.0 °F 10% 29.76 in 10.0 mi WSW 21.9 mph - N/A   Clear
5:53 PM 70.0 °F - 15.1 °F 12% 29.78 in 10.0 mi WSW 13.8 mph - N/A   Clear
6:53 PM 63.0 °F - 19.0 °F 18% 29.82 in 10.0 mi WSW 16.1 mph - N/A   Clear
7:53 PM 59.0 °F - 19.0 °F 21% 29.82 in 10.0 mi SSW 12.7 mph - N/A   Clear
8:53 PM 60.1 °F - 18.0 °F 20% 29.79 in 10.0 mi WSW 16.1 mph - N/A   Clear
9:53 PM 54.0 °F - 19.9 °F 26% 29.80 in 10.0 mi SSW 10.4 mph - N/A   Clear
10:53 PM 53.1 °F - 19.0 °F 26% 29.79 in 10.0 mi WSW 10.4 mph - N/A   Clear
11:53 PM 53.1 °F - 19.9 °F 27% 29.78 in 10.0 mi SSW 12.7 mph - N/A   Clear